When you browse on this site, cookies collect data to enhance your experience and personalize the content and advertising you see.
Visit our Privacy Policy to learn more. By continuing to use the site, you agree to this use of cookies and data.
  • în România
  • Lista ţărilor
  • Pe 7 zile
  • Temperatura apei
  • Hartă satelitară
  • Meteo pe hartă
  • Widget-uri
  • user-avatar
    Intrare

    Meteo pe oră la Durham

    Astăzi, 17 Ianuarie, Joi

    Timp Temperatura Precipitaţii Vânt Presiune Umiditate
    00:00 +1°C° 0 mm 6 m/s 744 mmHg 79%
    01:00 0°C° 0.5 mm 7 m/s 744 mmHg 77%
    02:00 0°C° 0.5 mm 8 m/s 745 mmHg 75%
    03:00 -1°C° 0.5 mm 8 m/s 746 mmHg 73%
    04:00 -1°C° 0 mm 8 m/s 747 mmHg 70%
    05:00 -2°C° 0 mm 8 m/s 748 mmHg 68%
    06:00 -2°C° 0 mm 7 m/s 748 mmHg 66%
    07:00 -2°C° 0 mm 8 m/s 749 mmHg 66%
    08:00 -2°C° 0 mm 8 m/s 749 mmHg 65%
    09:00 -3°C° 0 mm 9 m/s 750 mmHg 64%
    10:00 -1°C° 0 mm 8 m/s 751 mmHg 64%
    11:00 0°C° 0 mm 8 m/s 751 mmHg 63%
    12:00 +1°C° 0 mm 8 m/s 752 mmHg 62%
    13:00 +2°C° 0 mm 7 m/s 753 mmHg 63%
    14:00 +2°C° 0 mm 7 m/s 753 mmHg 65%
    15:00 +2°C° 0 mm 6 m/s 754 mmHg 66%
    16:00 +1°C° 0 mm 5 m/s 755 mmHg 68%
    17:00 0°C° 0 mm 5 m/s 755 mmHg 70%
    18:00 0°C° 0 mm 4 m/s 755 mmHg 73%
    19:00 -1°C° 0 mm 4 m/s 756 mmHg 73%
    20:00 0°C° 0 mm 3 m/s 756 mmHg 74%
    21:00 0°C° 0 mm 3 m/s 756 mmHg 75%
    22:00 0°C° 0 mm 3 m/s 756 mmHg 75%
    23:00 +1°C° 0 mm 2 m/s 756 mmHg 75%

    Mâine, 18 Ianuarie, Vineri

    Timp Temperatura Precipitaţii Vânt Presiune Umiditate
    00:00 +1°C° 0 mm 2 m/s 757 mmHg 75%
    01:00 +1°C° 0 mm 2 m/s 756 mmHg 75%
    02:00 +1°C° 0 mm 2 m/s 756 mmHg 75%
    03:00 +2°C° 0 mm 1 m/s 756 mmHg 75%
    04:00 +1°C° 0 mm 2 m/s 756 mmHg 75%
    05:00 +1°C° 0 mm 2 m/s 756 mmHg 75%
    06:00 +1°C° 0 mm 2 m/s 755 mmHg 75%
    07:00 0°C° 0 mm 3 m/s 755 mmHg 74%
    08:00 0°C° 0 mm 3 m/s 755 mmHg 73%
    09:00 -1°C° 0 mm 4 m/s 755 mmHg 73%
    10:00 -1°C° 0 mm 4 m/s 755 mmHg 69%
    11:00 0°C° 0 mm 5 m/s 755 mmHg 65%
    12:00 +1°C° 0 mm 6 m/s 754 mmHg 61%
    13:00 +1°C° 0 mm 5 m/s 754 mmHg 62%
    14:00 +1°C° 0 mm 5 m/s 753 mmHg 62%
    15:00 +1°C° 0 mm 5 m/s 753 mmHg 63%
    16:00 +1°C° 0.1 mm 6 m/s 753 mmHg 66%
    17:00 -1°C° 0.1 mm 6 m/s 752 mmHg 70%
    18:00 -1°C° 0.1 mm 6 m/s 752 mmHg 73%
    19:00 -1°C° 0.2 mm 7 m/s 752 mmHg 75%
    20:00 -1°C° 0.2 mm 7 m/s 752 mmHg 78%
    21:00 0°C° 0.2 mm 7 m/s 751 mmHg 81%
    22:00 -1°C° 0 mm 7 m/s 751 mmHg 82%
    23:00 -1°C° 0 mm 7 m/s 751 mmHg 84%

    Poimâine, 19 Ianuarie, Sâmbătă

    Timp Temperatura Precipitaţii Vânt Presiune Umiditate
    00:00 -1°C° 0 mm 7 m/s 750 mmHg 85%
    01:00 -1°C° 0 mm 6 m/s 750 mmHg 86%
    02:00 -1°C° 0 mm 6 m/s 750 mmHg 86%
    03:00 -1°C° 0 mm 6 m/s 750 mmHg 86%
    04:00 0°C° 0.1 mm 5 m/s 749 mmHg 88%
    05:00 0°C° 0.1 mm 5 m/s 749 mmHg 90%
    06:00 0°C° 0.1 mm 5 m/s 749 mmHg 91%
    07:00 0°C° 0.1 mm 5 m/s 749 mmHg 92%
    08:00 0°C° 0.1 mm 4 m/s 749 mmHg 92%
    09:00 0°C° 0.1 mm 4 m/s 749 mmHg 93%
    10:00 +1°C° 0 mm 4 m/s 749 mmHg 92%
    11:00 +1°C° 0 mm 4 m/s 749 mmHg 91%
    12:00 +2°C° 0 mm 3 m/s 749 mmHg 89%
    13:00 +2°C° 0 mm 3 m/s 749 mmHg 90%
    14:00 +3°C° 0 mm 2 m/s 749 mmHg 90%
    15:00 +3°C° 0 mm 2 m/s 749 mmHg 91%
    16:00 +4°C° 0 mm 1 m/s 749 mmHg 92%
    17:00 +4°C° 0 mm 1 m/s 750 mmHg 92%
    18:00 +3°C° 0 mm 0 m/s 750 mmHg 93%
    19:00 +3°C° 0 mm 0 m/s 751 mmHg 93%
    20:00 +3°C° 0 mm 0 m/s 751 mmHg 93%
    21:00 +3°C° 0 mm 0 m/s 751 mmHg 93%
    22:00 +4°C° 0 mm 1 m/s 752 mmHg 93%
    23:00 +3°C° 0 mm 1 m/s 752 mmHg 93%

    20 Ianuarie, Duminică

    Timp Temperatura Precipitaţii Vânt Presiune Umiditate
    00:00 +3°C° 0 mm 1 m/s 752 mmHg 93%
    01:00 +3°C° 0 mm 1 m/s 752 mmHg 93%
    02:00 +3°C° 0 mm 1 m/s 753 mmHg 92%
    03:00 +3°C° 0 mm 1 m/s 753 mmHg 92%
    04:00 +3°C° 0 mm 1 m/s 753 mmHg 91%
    05:00 +2°C° 0 mm 2 m/s 753 mmHg 91%
    06:00 +1°C° 0 mm 2 m/s 754 mmHg 90%
    07:00 +2°C° 0 mm 2 m/s 754 mmHg 90%
    08:00 +2°C° 0 mm 2 m/s 755 mmHg 90%
    09:00 +2°C° 0 mm 2 m/s 755 mmHg 89%
    10:00 +3°C° 0 mm 2 m/s 756 mmHg 88%
    11:00 +3°C° 0 mm 3 m/s 756 mmHg 87%
    12:00 +4°C° 0 mm 3 m/s 757 mmHg 85%
    13:00 +4°C° 0.1 mm 4 m/s 757 mmHg 84%
    14:00 +2°C° 0.1 mm 5 m/s 758 mmHg 83%
    15:00 +2°C° 0.1 mm 6 m/s 758 mmHg 82%
    16:00 +2°C° 0 mm 6 m/s 759 mmHg 80%
    17:00 +1°C° 0 mm 6 m/s 760 mmHg 78%
    18:00 -1°C° 0 mm 6 m/s 760 mmHg 76%
    19:00 -1°C° 0 mm 6 m/s 761 mmHg 76%
    20:00 -1°C° 0 mm 5 m/s 761 mmHg 77%
    21:00 -1°C° 0 mm 5 m/s 762 mmHg 77%
    22:00 -1°C° 0 mm 5 m/s 762 mmHg 77%
    23:00 -1°C° 0 mm 5 m/s 763 mmHg 76%

    21 Ianuarie, Luni

    Timp Temperatura Precipitaţii Vânt Presiune Umiditate
    00:00 -2°C° 0 mm 5 m/s 763 mmHg 76%
    01:00 -2°C° 0 mm 5 m/s 763 mmHg 75%
    02:00 -2°C° 0 mm 4 m/s 763 mmHg 75%
    03:00 -2°C° 0 mm 4 m/s 763 mmHg 74%
    04:00 -2°C° 0 mm 4 m/s 763 mmHg 75%
    05:00 -2°C° 0 mm 4 m/s 763 mmHg 75%
    06:00 -2°C° 0 mm 4 m/s 763 mmHg 76%
    07:00 -2°C° 0 mm 4 m/s 762 mmHg 76%
    08:00 0°C° 0 mm 3 m/s 762 mmHg 77%
    09:00 0°C° 0 mm 3 m/s 762 mmHg 77%
    10:00 +1°C° 0 mm 3 m/s 761 mmHg 76%
    11:00 +2°C° 0 mm 3 m/s 761 mmHg 75%
    12:00 +3°C° 0 mm 3 m/s 760 mmHg 74%
    13:00 +3°C° 0 mm 4 m/s 759 mmHg 75%
    14:00 +3°C° 0 mm 4 m/s 758 mmHg 76%
    15:00 +3°C° 0 mm 4 m/s 757 mmHg 78%
    16:00 +1°C° 0.2 mm 5 m/s 756 mmHg 79%
    17:00 +1°C° 0.2 mm 5 m/s 755 mmHg 80%
    18:00 +1°C° 0.2 mm 6 m/s 754 mmHg 82%
    19:00 -1°C° 0.3 mm 6 m/s 752 mmHg 82%
    20:00 -1°C° 0.3 mm 7 m/s 751 mmHg 83%
    21:00 -1°C° 0.3 mm 8 m/s 749 mmHg 84%
    22:00 -1°C° 0.4 mm 8 m/s 748 mmHg 85%
    23:00 -1°C° 0.4 mm 9 m/s 747 mmHg 86%

    22 Ianuarie, Marţi

    Timp Temperatura Precipitaţii Vânt Presiune Umiditate
    00:00 -1°C° 0.4 mm 9 m/s 745 mmHg 88%
    01:00 -1°C° 0.5 mm 8 m/s 745 mmHg 89%
    02:00 -1°C° 0.5 mm 8 m/s 744 mmHg 90%
    03:00 -1°C° 0.5 mm 7 m/s 743 mmHg 91%
    04:00 -1°C° 0.6 mm 6 m/s 743 mmHg 92%
    05:00 0°C° 0.6 mm 4 m/s 742 mmHg 93%
    06:00 +1°C° 0.6 mm 3 m/s 742 mmHg 95%
    07:00 0°C° 0.9 mm 4 m/s 742 mmHg 94%
    08:00 0°C° 0.9 mm 4 m/s 742 mmHg 94%
    09:00 0°C° 0.9 mm 4 m/s 742 mmHg 94%
    10:00 0°C° 0.7 mm 4 m/s 743 mmHg 95%
    11:00 0°C° 0.7 mm 4 m/s 743 mmHg 95%
    12:00 0°C° 0.7 mm 4 m/s 743 mmHg 96%
    13:00 0°C° 0.7 mm 4 m/s 743 mmHg 96%
    14:00 0°C° 0.7 mm 4 m/s 743 mmHg 96%
    15:00 0°C° 0.7 mm 4 m/s 743 mmHg 96%
    16:00 0°C° 0.7 mm 4 m/s 744 mmHg 96%
    17:00 0°C° 0.7 mm 4 m/s 744 mmHg 96%
    18:00 0°C° 0.7 mm 4 m/s 745 mmHg 96%
    19:00 0°C° 0.6 mm 4 m/s 745 mmHg 96%
    20:00 +1°C° 0.6 mm 3 m/s 746 mmHg 96%
    21:00 +1°C° 0.6 mm 3 m/s 746 mmHg 96%
    22:00 +1°C° 0.1 mm 3 m/s 747 mmHg 96%
    23:00 +1°C° 0.1 mm 3 m/s 747 mmHg 96%
    Arată mai mult